This demonstration page uses our WeatherBlox Daily Observations layout. Learn more.

Left ArrowRight Arrow

39.92423, -83.80882

Hourly Observations for January 4, 2020

Temp ( °F °C ) Dew Point ( °F °C ) Humidity (%) Winds ( mph kmh ) Pressure ( in mb ) Visibility ( mi km ) Precip ( " mm )
12:38 am 00:38 Cloudy 43 6 43 6 100 100 NNW 8 13 29.8 1009 10 16.0934 0 0
12:56 am 00:56 Cloudy 43 6.1 43 6.1 100 100 NNW 5 7 29.78 1009 10 16.0934 0 0
1:56 am 01:56 Cloudy with Mist and Fog 42 5.6 42 5.6 100 100 NW 7 11 29.79 1009 5 8.0467 0 0
2:19 am 02:19 Cloudy with Light Rain 43 6 43 6 100 100 NW 8 13 29.81 1009 2 3.21868 0.001 0.001
2:26 am 02:26 Cloudy with Light Rain 43 6 43 6 100 100 NW 8 13 29.81 1009 1.75 2.816345 0.001 0.001
2:42 am 02:42 Cloudy with Light Rain 41 5 41 5 100 100 N 8 13 29.81 1010 2.5 4.02335 0.001 0.001
2:48 am 02:48 Cloudy with Mist and Fog 41 5 41 5 100 100 N 9 15 29.81 1010 3 4.82802 0.001 0.001
2:56 am 02:56 Cloudy with Light Rain 41 5 41 5 100 100 NNW 7 11 29.8 1009 3 4.82802 0.001 0.001
3:37 am 03:37 Cloudy with Mist and Fog 41 5 41 5 100 100 NNW 6 9 29.82 1010 3 4.82802 0.001 0.001
3:56 am 03:56 Cloudy with Mist and Fog 41 5 41 5 100 100 NW 6 9 29.81 1010 3 4.82802 0.001 0.001
4:47 am 04:47 Cloudy with Light Rain 41 5 41 5 100 100 NNW 12 19 29.82 1010 3 4.82802 0.001 0.001
4:56 am 04:56 Cloudy with Light Rain 40 4.4 40 4.4 100 100 NNW 9 15 29.81 1010 3 4.82802 0.001 0.001
5:13 am 05:13 Cloudy with Mist and Fog 39 4 39 4 100 100 NW 10 17 29.83 1010 3 4.82802 0.001 0.001
5:56 am 05:56 Cloudy with Mist and Fog 39 3.9 39 3.9 100 100 NW 8 13 29.83 1010 4 6.43736 0.001 0.001
6:10 am 06:10 Cloudy with Mist and Fog 39 4 39 4 100 100 NW 7 11 29.84 1010 5 8.0467 0 0
6:17 am 06:17 Cloudy with Mist and Fog 39 4 39 4 100 100 NW 7 11 29.84 1010 5 8.0467 0 0
6:56 am 06:56 Cloudy with Mist and Fog 39 3.9 39 3.9 100 100 NW 8 13 29.83 1010 5 8.0467 0 0
7:26 am 07:26 Cloudy with Light Rain 37 3 37 3 100 100 NNW 13 20 29.85 1011 4 6.43736 0.001 0.001
7:56 am 07:56 Cloudy with Mist and Fog 37 2.8 37 2.8 100 100 NNW 8 13 29.83 1010 4 6.43736 0.001 0.001
8:12 am 08:12 Cloudy with Light Rain 37 3 37 3 100 100 NNW 8 13 29.85 1011 4 6.43736 0.001 0.001
8:54 am 08:54 Cloudy 37 3 36 2 93 93 NNW 10 17 29.87 1012 7 11.26538 0.001 0.001
8:56 am 08:56 Cloudy 37 2.8 36 2.2 96 96 NW 9 15 29.85 1011 7 11.26538 0.001 0.001
9:15 am 09:15 Cloudy with Mist and Fog 36 2 36 2 100 100 NNW 12 19 29.87 1012 6 9.65604 0 0
9:49 am 09:49 Cloudy with Light Rain 36 2 34 1 93 93 NNW 10 17 29.88 1012 6 9.65604 0.001 0.001
9:56 am 09:56 Cloudy with Mist and Fog 36 2.2 34 1.1 93 93 NNW 13 20 29.87 1011 6 9.65604 0.001 0.001
10:14 am 10:14 Cloudy with Light Rain 36 2 36 2 100 100 NW 12 19 29.9 1013 4 6.43736 0.001 0.001
10:23 am 10:23 Cloudy with Light Rain 36 2 34 1 93 93 NW 13 20 29.9 1013 5 8.0467 0.001 0.001
10:56 am 10:56 Cloudy with Light Rain 35 1.7 34 1.1 96 96 NW 12 19 29.88 1012 4 6.43736 0.001 0.001
11:10 am 11:10 Cloudy with Light Rain 36 2 36 2 100 100 NW 12 19 29.9 1013 2 3.21868 0.001 0.001
11:17 am 11:17 Cloudy with Light Rain 36 2 36 2 100 100 NW 9 15 29.9 1013 1.75 2.816345 0.001 0.001
11:35 am 11:35 Cloudy with Light Snow 34 1 34 1 100 100 NW 8 13 29.91 1013 3 4.82802 0.001 0.001
11:56 am 11:56 Cloudy with Light Rain 35 1.7 34 1.1 96 96 NW 8 13 29.88 1012 6 9.65604 0.001 0.001
12:56 pm 12:56 Cloudy 36 2.2 33 0.6 89 89 WNW 13 20 29.87 1012 10 16.0934 0.001 0.001
1:18 pm 13:18 Cloudy with Light Rain 36 2 34 1 93 93 NW 14 22 29.89 1012 10 16.0934 0.001 0.001
1:56 pm 13:56 Cloudy with Light Rain 36 2.2 32 0 86 86 NW 12 19 29.87 1012 9 14.48406 0.001 0.001
2:03 pm 14:03 Cloudy with Light Rain 36 2 32 0 87 87 NW 12 19 29.89 1012 10 16.0934 0.001 0.001
2:16 pm 14:16 Cloudy with Light Rain 36 2 34 1 93 93 NNW 13 20 29.89 1012 10 16.0934 0.001 0.001
2:56 pm 14:56 Cloudy with Light Rain 36 2.2 33 0.6 89 89 NW 10 17 29.88 1012 10 16.0934 0.001 0.001
3:56 pm 15:56 Cloudy with Light Rain 36 2.2 34 1.1 93 93 WNW 10 17 29.91 1013 10 16.0934 0.001 0.001
4:26 pm 16:26 Cloudy with Light Snow 34 1 34 1 100 100 NW 13 20 29.95 1014 3 4.82802 0.001 0.001
4:56 pm 16:56 Cloudy with Light Rain 34 1.1 34 1.1 100 100 NW 10 17 29.95 1014 7 11.26538 0.001 0.001
5:31 pm 17:31 Cloudy 34 1 34 1 100 100 NW 10 17 29.99 1016 9 14.48406 0.001 0.001
5:56 pm 17:56 Cloudy with Light Snow 34 1.1 32 0 92 92 WNW 15 24 29.98 1015 10 16.0934 0.001 0.001
6:04 pm 18:04 Cloudy with Light Snow 34 1 32 0 93 93 WNW 14 22 30.01 1016 7 11.26538 0.001 0.001
6:54 pm 18:54 Cloudy with Light Snow 34 1 34 1 100 100 WNW 13 20 30.04 1017 9 14.48406 0.001 0.001
6:56 pm 18:56 Cloudy with Light Snow 33 0.6 33 0.6 100 100 WNW 12 19 30.02 1017 9 14.48406 0.001 0.001
7:56 pm 19:56 Cloudy 33 0.6 33 0.6 100 100 W 13 20 30.04 1017 10 16.0934 0.001 0.001
8:56 pm 20:56 Cloudy 33 0.6 32 0 96 96 W 15 24 30.06 1018 10 16.0934 0 0
9:06 pm 21:06 Cloudy 34 1 32 0 93 93 W 16 26 30.08 1019 10 16.0934 0 0
9:41 pm 21:41 Cloudy 34 1 30 -1 87 87 W 13 20 30.1 1019 10 16.0934 0 0
9:56 pm 21:56 Cloudy 33 0.6 30 -1.1 89 89 W 17 28 30.09 1019 10 16.0934 0 0
10:28 pm 22:28 Cloudy 34 1 28 -2 81 81 WNW 21 33 30.12 1020 10 16.0934 0 0
10:39 pm 22:39 Cloudy 34 1 28 -2 81 81 W 17 28 30.12 1020 10 16.0934 0 0
10:56 pm 22:56 Cloudy 33 0.6 28 -2.2 82 82 W 18 30 30.11 1020 10 16.0934 0.01 0.254
11:56 pm 23:56 Cloudy 32 0 28 -2.2 85 85 W 20 31 30.12 1020 10 16.0934 0 0

Powered by AerisWeather